[[{"header":{"parameterUnit":"m.s-1","parameterCategory":1,"la1":30.2991,"la2":30.254,"lo1":-89.0895,"lo2":-89.0444,"dy":0.0017,"dx":0.0017,"nx":28,"ny":28,"refTime":"2024-03-12T03:00:00:Z","depth":0,"parameterNumber":2,"parameterNumberName":"U-component_of_WINDS"},"data":[0,0,0,0,0,0,0,0,0,0,0,0,0,0,0,0,0,0,0,0,0,0,0,0,0,0,0,0,0,0,0,0,0,0,0,0,0,0,0,0,0,0,0,0,0,0,0,0,0,0,0,0,0,0,0,0,0,0,-0.8291,-0.8291,0,-0.8265,-0.8265,-0.8264,-0.8207,-0.8206,-0.8205,-0.8203,-0.8179,-0.8179,-0.8179,0,0,0,0,0,0,0,0,0,0,0,0,0,-0.8294,-0.8294,-0.8291,-0.8291,-0.8291,-0.8265,-0.8265,-0.8264,-0.8207,-0.8206,-0.8204,-0.8203,-0.8178,-0.8179,-0.8179,0,0,0,0,0,0,0,0,0,0,0,0,0,-0.8283,-0.8294,-0.8291,-0.8259,-0.8256,-0.8265,-0.8265,-0.8264,-0.8207,-0.8206,-0.8204,-0.8202,-0.8178,-0.8179,-0.8179,-0.8219,0,0,-0.8181,-0.8182,0,0,0,0,0,0,0,0,-0.8283,-0.8283,-0.8264,-0.8261,-0.8258,-0.8237,-0.8256,-0.8249,-0.8208,-0.8226,-0.8203,-0.8201,-0.82,-0.8198,-0.8197,-0.8218,-0.8217,-0.8181,-0.8182,-0.8182,-0.8182,0,0,0,0,0,0,0,-0.8284,-0.8284,-0.8281,-0.8264,-0.826,-0.8246,-0.8243,-0.8255,-0.8223,-0.8224,-0.822,-0.8218,-0.8198,-0.8197,-0.8196,-0.8216,-0.8181,-0.8182,-0.8182,-0.8183,-0.8268,-0.8269,0,0,0,0,0,0,-0.8289,-0.8285,-0.8282,-0.828,-0.8266,-0.8248,-0.8244,-0.8246,-0.8223,-0.8218,-0.8219,-0.8215,-0.8197,-0.8196,-0.8195,-0.824,-0.8182,-0.8183,-0.8183,-0.8266,-0.8268,-0.827,0,0,0,0,0,0,-0.829,-0.829,-0.8283,-0.8281,-0.8279,-0.825,-0.8252,-0.8246,-0.8245,-0.8219,-0.8213,-0.8224,-0.8195,-0.8194,-0.8213,-0.8238,-0.8183,-0.8184,-0.8264,-0.8266,-0.8269,-0.833,0,0,0,0,0,0,-0.829,-0.829,-0.8304,-0.8282,-0.828,-0.8301,-0.8254,-0.8247,-0.8246,-0.8241,-0.8222,-0.8217,-0.8194,-0.8213,-0.8214,-0.8238,-0.8184,-0.8261,-0.8265,-0.8268,-0.8325,-0.8334,-0.8342,0,0,0,0,0,-0.829,-0.8323,-0.8305,-0.8305,-0.8297,-0.8302,-0.8301,-0.8273,-0.8249,-0.8263,-0.8246,-0.8218,-0.8235,-0.8215,-0.8216,-0.8241,-0.8259,-0.8264,-0.8268,-0.8322,-0.8332,-0.8342,0,0,0,0,0,0,-0.835,-0.8319,-0.83,-0.8326,-0.8317,-0.8293,-0.831,-0.8285,-0.8284,-0.8279,-0.8244,-0.8241,-0.8264,-0.8254,-0.8232,-0.8278,-0.8243,-0.8248,-0.8283,-0.8294,-0.8302,-0.8304,-0.8185,0,0,0,0,0,-0.8366,-0.8372,-0.8346,-0.8371,-0.8368,-0.834,-0.8341,-0.832,-0.831,-0.8306,-0.8291,-0.8283,-0.8286,-0.8289,-0.8291,-0.8324,-0.8319,-0.8341,-0.8349,-0.8356,-0.8361,-0.8378,-0.8387,-0.8284,-0.8284,-0.8284,0,0,-0.8399,-0.8383,-0.839,-0.8383,-0.8374,-0.8382,-0.8337,-0.8348,-0.8354,-0.8308,-0.8325,-0.8313,-0.8302,-0.8328,-0.8339,-0.832,-0.8388,-0.8362,-0.8367,-0.8368,-0.8383,-0.8393,-0.8402,-0.8287,-0.8286,-0.8286,0,0,-0.8464,-0.8453,-0.8473,-0.8465,-0.8451,-0.8432,-0.8437,-0.8416,-0.8407,-0.8423,-0.8389,-0.8396,-0.8403,-0.8396,-0.8394,-0.8456,-0.8431,-0.8458,-0.8501,-0.8518,-0.8526,-0.8533,-0.8556,-0.8565,-0.8462,-0.8463,-0.8463,0,-0.8508,-0.8518,-0.8487,-0.8499,-0.8498,-0.8456,-0.8477,-0.847,-0.8459,-0.8459,-0.8438,-0.8446,-0.8435,-0.8459,-0.8475,-0.8474,-0.8479,-0.846,-0.8527,-0.8534,-0.854,-0.8562,-0.857,-0.8466,-0.8466,-0.8465,-0.8465,0,-0.8572,-0.858,-0.8598,-0.8587,-0.8588,-0.8604,-0.8576,-0.858,-0.8559,-0.8543,-0.856,-0.8546,-0.8544,-0.8548,-0.8528,-0.8569,-0.8559,-0.8533,-0.8498,-0.8554,-0.8574,-0.8582,-0.8471,-0.847,-0.8469,-0.8468,0,0,-0.8674,-0.8645,-0.8653,-0.8647,-0.8629,-0.8635,-0.865,-0.8648,-0.8652,-0.8646,-0.8658,-0.8665,-0.8641,-0.8638,-0.8617,-0.8632,-0.8683,-0.8605,-0.8604,-0.862,-0.8728,-0.8748,-0.8758,-0.8666,-0.8667,-0.8668,-0.8729,0,-0.8736,-0.8759,-0.8731,-0.8761,-0.8768,-0.8729,-0.8742,-0.8733,-0.8718,-0.8722,-0.8706,-0.8711,-0.868,-0.8678,-0.8691,-0.8674,-0.8704,-0.8669,-0.8677,-0.8678,-0.8682,-0.8768,-0.8788,-0.8846,-0.8737,-0.8738,-0.8739,0,-0.881,-0.8806,-0.8837,-0.8817,-0.8819,-0.8831,-0.8827,-0.8831,-0.882,-0.8808,-0.8806,-0.878,-0.8794,-0.8759,-0.8778,-0.8755,-0.8757,-0.8749,-0.8751,-0.8751,-0.8712,-0.877,-0.8864,-0.8873,-0.8751,-0.875,-0.8749,0,-0.8882,-0.8884,-0.8903,-0.8899,-0.8877,-0.8886,-0.8877,-0.8864,-0.8865,-0.8862,-0.8862,-0.886,-0.886,-0.8859,-0.8834,-0.8811,-0.8857,-0.882,-0.8848,-0.8849,-0.886,-0.8859,-0.8955,-0.886,-0.886,-0.886,-0.886,0,-0.8953,-0.8973,-0.8935,-0.8946,-0.8968,-0.8936,-0.8958,-0.8945,-0.8934,-0.8943,-0.8909,-0.8918,-0.8884,-0.889,-0.8871,-0.889,-0.889,-0.8881,-0.8876,-0.8884,-0.8885,-0.8885,-0.888,-0.8862,-0.8862,-0.8861,-0.8861,0,-0.9037,-0.9012,-0.9029,-0.9006,-0.9001,-0.9018,-0.8999,-0.9009,-0.8991,-0.9003,-0.9004,-0.8977,-0.8982,-0.8957,-0.8957,-0.8944,-0.8973,-0.8961,-0.8977,-0.8973,-0.9003,-0.9001,-0.9103,-0.9114,-0.9012,-0.9013,-0.9013,0,-0.9084,-0.9099,-0.9077,-0.908,-0.9073,-0.9079,-0.9079,-0.9048,-0.905,-0.9039,-0.905,-0.9052,-0.9052,-0.9062,-0.9043,-0.9043,-0.9031,-0.9066,-0.9031,-0.9039,-0.9032,-0.9031,-0.9033,-0.9074,-0.9075,-0.9076,-0.9077,0,-0.9171,-0.9158,-0.9159,-0.9157,-0.9158,-0.9154,-0.9148,-0.9153,-0.912,-0.9124,-0.9128,-0.9128,-0.9128,-0.9131,-0.9127,-0.9118,-0.9093,-0.9089,-0.9095,-0.9104,-0.9113,-0.9109,-0.8998,-0.9086,-0.9086,-0.9085,-0.9084,-0.9084,-0.9239,-0.925,-0.9236,-0.9239,-0.9231,-0.9227,-0.9235,-0.9218,-0.9221,-0.9219,-0.9201,-0.9208,-0.9197,-0.919,-0.9184,-0.919,-0.9173,-0.9183,-0.9185,-0.9188,-0.9193,-0.9112,-0.9189,-0.9189,-0.9188,-0.9188,-0.9188,0,-0.9324,-0.9313,-0.9316,-0.9309,-0.9311,-0.9286,-0.9278,-0.9282,-0.9289,-0.928,-0.9281,-0.9286,-0.9289,-0.927,-0.927,-0.9278,-0.9267,-0.9279,-0.9279,-0.9277,-0.9208,-0.9203,-0.9289,-0.9289,-0.9289,-0.9289,-0.9289,-0.9289,-0.9369,-0.9386,-0.9372,-0.9385,-0.9375,-0.9381,-0.9379,-0.9375,-0.9368,-0.9375,-0.9377,-0.9364,-0.9352,-0.9351,-0.9352,-0.9346,-0.9348,-0.9365,-0.9356,-0.9292,-0.9282,-0.9273,-0.9267,-0.9366,-0.9366,-0.9424,-0.9425,-0.9425]},{"header":{"parameterUnit":"m.s-1","parameterCategory":1,"la1":30.2991,"la2":30.254,"lo1":-89.0895,"lo2":-89.0444,"dy":0.0017,"dx":0.0017,"nx":28,"ny":28,"refTime":"2024-03-12T03:00:00:Z","depth":0,"parameterNumber":3,"parameterNumberName":"V-component_of_WINDS"},"data":[0,0,0,0,0,0,0,0,0,0,0,0,0,0,0,0,0,0,0,0,0,0,0,0,0,0,0,0,0,0,0,0,0,0,0,0,0,0,0,0,0,0,0,0,0,0,0,0,0,0,0,0,0,0,0,0,0,0,1.5555,1.5555,0,1.5523,1.5523,1.5523,1.5511,1.5512,1.5512,1.5512,1.5476,1.5475,1.5474,0,0,0,0,0,0,0,0,0,0,0,0,0,1.5602,1.5601,1.5555,1.5555,1.5554,1.5523,1.5523,1.5522,1.5511,1.5512,1.5512,1.5512,1.5476,1.5475,1.5474,0,0,0,0,0,0,0,0,0,0,0,0,0,1.5577,1.5601,1.5555,1.5545,1.5544,1.5523,1.5523,1.5522,1.5511,1.5512,1.5512,1.5512,1.5477,1.5475,1.5474,1.546,0,0,1.5469,1.5468,0,0,0,0,0,0,0,0,1.5579,1.5575,1.5547,1.5546,1.5544,1.5522,1.5526,1.5501,1.5511,1.5524,1.5512,1.5512,1.5491,1.5488,1.5482,1.5458,1.5457,1.5469,1.5468,1.5467,1.5466,0,0,0,0,0,0,0,1.558,1.5577,1.5542,1.5546,1.5545,1.5541,1.5538,1.5522,1.5506,1.5523,1.5522,1.5518,1.549,1.5483,1.5481,1.5456,1.5469,1.5467,1.5466,1.5466,1.5418,1.5418,0,0,0,0,0,0,1.5584,1.5578,1.5543,1.5541,1.5562,1.554,1.5536,1.5529,1.5507,1.5503,1.5518,1.5518,1.5486,1.5483,1.5479,1.5461,1.5467,1.5465,1.5465,1.5419,1.5418,1.5418,0,0,0,0,0,0,1.5585,1.5581,1.5545,1.556,1.5555,1.5539,1.5531,1.5528,1.5521,1.5503,1.55,1.5514,1.5486,1.5482,1.5465,1.546,1.5465,1.5463,1.5419,1.5418,1.5418,1.5425,0,0,0,0,0,0,1.5587,1.5582,1.5577,1.556,1.5554,1.5532,1.553,1.5527,1.5519,1.5518,1.5499,1.5496,1.5486,1.5467,1.5463,1.5457,1.5462,1.5419,1.5419,1.5418,1.5425,1.5424,1.5424,0,0,0,0,0,1.5589,1.558,1.5577,1.5573,1.5548,1.5532,1.5528,1.5518,1.5518,1.5513,1.5501,1.5496,1.5461,1.5466,1.5461,1.5455,1.542,1.5419,1.5418,1.5425,1.5424,1.5424,0,0,0,0,0,0,1.5597,1.5577,1.5574,1.556,1.5548,1.553,1.5523,1.5518,1.5504,1.5504,1.5491,1.5487,1.547,1.5461,1.5466,1.5439,1.544,1.5438,1.5446,1.5446,1.5446,1.5448,1.5461,0,0,0,0,0,1.5597,1.5586,1.5569,1.5558,1.5552,1.5539,1.5531,1.5524,1.551,1.5505,1.5492,1.5478,1.5463,1.5454,1.544,1.5423,1.5418,1.5417,1.5416,1.5416,1.5415,1.5404,1.5403,1.5416,1.5416,1.5416,0,0,1.5597,1.5585,1.5579,1.556,1.5549,1.5537,1.5534,1.5522,1.5512,1.5502,1.5486,1.5476,1.5459,1.5442,1.5434,1.5433,1.541,1.5415,1.5415,1.5414,1.5403,1.5402,1.5401,1.5415,1.5415,1.5415,0,0,1.5591,1.5581,1.5571,1.556,1.5545,1.5536,1.5533,1.5516,1.5509,1.5493,1.5485,1.5472,1.5448,1.5436,1.5427,1.5416,1.541,1.5411,1.5409,1.5399,1.5398,1.5397,1.5392,1.539,1.541,1.541,1.541,0,1.5593,1.5575,1.5566,1.5553,1.5544,1.5536,1.5524,1.5514,1.5495,1.5488,1.5488,1.5457,1.5445,1.5425,1.5422,1.5415,1.541,1.5413,1.5399,1.5398,1.5397,1.5392,1.539,1.541,1.541,1.541,1.541,0,1.5578,1.5566,1.5559,1.5541,1.5531,1.5519,1.5506,1.5497,1.5491,1.5481,1.5464,1.5449,1.5431,1.5426,1.542,1.5404,1.5404,1.5402,1.5402,1.5396,1.5391,1.5389,1.5411,1.541,1.541,1.541,0,0,1.5576,1.5553,1.555,1.5542,1.5524,1.5513,1.55,1.5484,1.5476,1.5462,1.545,1.5429,1.5427,1.5416,1.5408,1.5399,1.539,1.5398,1.5397,1.5396,1.537,1.5372,1.537,1.5386,1.5386,1.5385,1.5372,0,1.5567,1.5545,1.5536,1.5517,1.5505,1.5496,1.5484,1.5471,1.5462,1.5449,1.5438,1.5423,1.5422,1.5415,1.5406,1.5393,1.5384,1.5394,1.5373,1.5373,1.5377,1.5367,1.5369,1.5357,1.537,1.5369,1.5369,0,1.5554,1.5541,1.5522,1.5504,1.5499,1.5489,1.5472,1.5461,1.5445,1.5438,1.5426,1.5419,1.5403,1.5404,1.5382,1.5389,1.5379,1.5372,1.5371,1.5368,1.537,1.5363,1.5353,1.535,1.5366,1.5366,1.5366,0,1.5554,1.5532,1.5517,1.551,1.5489,1.5482,1.5473,1.5458,1.5448,1.5433,1.5426,1.541,1.54,1.5387,1.5374,1.5376,1.5352,1.5353,1.5345,1.5345,1.534,1.534,1.5327,1.5335,1.5335,1.5335,1.5335,0,1.5545,1.5533,1.5516,1.5507,1.5493,1.5482,1.5467,1.5457,1.5444,1.5431,1.5422,1.5411,1.5395,1.5381,1.5371,1.5353,1.5349,1.5342,1.5339,1.5342,1.5343,1.5336,1.5336,1.5335,1.5335,1.5335,1.5335,0,1.5543,1.5531,1.5514,1.5496,1.5491,1.5481,1.5465,1.5455,1.5445,1.5429,1.5425,1.5408,1.5391,1.5377,1.5354,1.5348,1.5328,1.5326,1.5334,1.5332,1.5325,1.5326,1.5306,1.5302,1.5314,1.5314,1.5314,0,1.5537,1.5528,1.5509,1.55,1.5491,1.5478,1.5468,1.5456,1.5446,1.5426,1.5418,1.5401,1.5386,1.5358,1.5343,1.5326,1.5322,1.5316,1.5319,1.5322,1.532,1.5321,1.5319,1.5316,1.5316,1.5315,1.5315,0,1.5529,1.5523,1.551,1.5494,1.5483,1.547,1.5456,1.545,1.5435,1.5423,1.5406,1.5395,1.5371,1.5353,1.5334,1.5323,1.5316,1.5315,1.5312,1.5314,1.5319,1.5315,1.5332,1.5315,1.5315,1.5315,1.5315,1.5315,1.5524,1.5515,1.55,1.5485,1.5474,1.5461,1.545,1.5439,1.5425,1.5405,1.5399,1.538,1.5363,1.5337,1.5325,1.531,1.5309,1.5305,1.5304,1.5303,1.5303,1.5322,1.5306,1.5306,1.5306,1.5306,1.5306,0,1.5514,1.5504,1.5491,1.5472,1.546,1.5456,1.544,1.543,1.5414,1.54,1.5385,1.5364,1.5347,1.533,1.5311,1.5302,1.5298,1.5297,1.5297,1.5295,1.5305,1.5309,1.5301,1.5301,1.5301,1.5301,1.5301,1.5301,1.5508,1.5492,1.5485,1.5462,1.5451,1.5434,1.5426,1.5413,1.5401,1.5379,1.5365,1.5354,1.5338,1.5318,1.5301,1.5296,1.5289,1.5289,1.5283,1.5293,1.5294,1.5295,1.5298,1.5288,1.5288,1.5274,1.5274,1.5274]}]]